Track SAKURA 2B (CS-2B) now! SAKURA 2B (CS-2B) is classified as:
1 14248U 83081A 19047.93171698 -.00000197 +00000-0 +00000-0 0 9992 2 14248 014.7482 346.2232 0009196 344.3444 272.0731 00.98812435097222